Weather History for Tri-Cities, TN

Change the Weather History Date:

Friday, November 11, 2011

  Actual Average Record
Temperature  
Mean Temperature 38 °F 48 °F  
Max Temperature 47 °F 61 °F 76 °F (1945)
Min Temperature 28 °F 36 °F 18 °F (1957)
Degree Days  
Heating Degree Days 27 17  
Month to date heating degree days 193 167  
Since 1 July heating degree days 507 502  
Cooling Degree Days 0 0  
Month to date cooling degree days 0 0  
Year to date cooling degree days 1331 980  
Moisture  
Dew Point 21 °F    
Average Humidity 55    
Maximum Humidity 72    
Minimum Humidity 37    
Precipitation  
Precipitation 0.00 in 0.09 in 1.49 in (2002)
Month to date precipitation 1.71 1.01  
Year to date precipitation 40.69 35.55  
Snow  
Snow 0.00 in 0.00 in - ()
Month to date snowfall 0.0 0.0  
Since 1 July snowfall 0.0 0.1  
Since 1 September snowfall 0.0 0.1  
Snow Depth 0.00 in    
Sea Level Pressure  
Sea Level Pressure 30.12 in    
Wind  
Wind Speed 7 mph (SW)    
Max Wind Speed 16 mph    
Max Gust Speed 22 mph    
Visibility 10 miles    
Events      
T = Trace of Precipitation, MM = Missing Value Source: NWS Daily Summary

Daily Weather History Graph

Daily Weather History Graph

Search for Another Location

Airport:

Trip Planner

Search our weather history database for the weather conditions in past years. The results will help you decide how hot, cold, wet, or windy it might be!

Date:

Astronomy

Nov. 11, 2011 Rise Set
Actual Time 7:02 AM EST 5:24 PM EST
Civil Twilight 6:35 AM EST 5:51 PM EST
Nautical Twilight 6:04 AM EST 6:22 PM EST
Astronomical Twilight 5:34 AM EST 6:52 PM EST
Moon 5:54 PM EST (11/11) 7:47 AM EST (11/11)
Length of Visible Light 11h 15m
Length of Day
10h 21m
Full, 99% of the Moon is Illuminated
Nov 11
Full
Nov 18
Last Quarter
Nov 25
New
Dec 2
First Quarter
Dec 10
Full

Hourly Weather History & Observations

Time (EST) Temp. Windchill Dew Point Humidity Pressure Visibility Wind Dir Wind Speed Gust Speed Precip Events Conditions
12:53 AM 35.1 °F 32.2 °F 19.0 °F 52% 30.04 in 10.0 mi WSW 3.5 mph - N/A   Partly Cloudy
1:53 AM 33.1 °F 27.7 °F 19.9 °F 59% 30.04 in 10.0 mi WSW 5.8 mph - N/A   Scattered Clouds
2:53 AM 34.0 °F 28.0 °F 19.9 °F 56% 30.05 in 10.0 mi WSW 6.9 mph - N/A   Mostly Cloudy
3:53 AM 34.0 °F 28.0 °F 19.9 °F 56% 30.05 in 10.0 mi WSW 6.9 mph - N/A   Overcast
4:53 AM 35.1 °F 27.9 °F 21.0 °F 57% 30.06 in 10.0 mi West 9.2 mph - N/A   Mostly Cloudy
5:53 AM 30.9 °F 25.2 °F 19.9 °F 64% 30.09 in 10.0 mi SW 5.8 mph - N/A   Scattered Clouds
6:53 AM 28.9 °F 21.1 °F 19.9 °F 69% 30.11 in 10.0 mi WSW 8.1 mph - N/A   Scattered Clouds
7:53 AM 30.9 °F 26.2 °F 21.0 °F 67% 30.13 in 10.0 mi SW 4.6 mph - N/A   Clear
8:53 AM 37.0 °F 29.8 °F 23.0 °F 57% 30.15 in 10.0 mi West 10.4 mph - N/A   Clear
9:53 AM 39.0 °F 34.8 °F 23.0 °F 53% 30.15 in 10.0 mi Variable 5.8 mph - N/A   Partly Cloudy
10:53 AM 41.0 °F 33.1 °F 21.9 °F 47% 30.15 in 10.0 mi WNW 15.0 mph 18.4 mph N/A   Partly Cloudy
11:53 AM 42.1 °F 36.6 °F 21.9 °F 45% 30.13 in 10.0 mi WSW 9.2 mph - N/A   Partly Cloudy
12:53 PM 44.1 °F 39.0 °F 21.0 °F 40% 30.11 in 10.0 mi SSW 9.2 mph - N/A   Clear
1:53 PM 45.0 °F 40.6 °F 21.9 °F 40% 30.10 in 10.0 mi SW 8.1 mph 17.3 mph N/A   Clear
2:53 PM 46.9 °F - 21.0 °F 36% 30.10 in 10.0 mi SW 13.8 mph 17.3 mph N/A   Clear
3:53 PM 46.9 °F - 21.0 °F 36% 30.11 in 10.0 mi SSW 12.7 mph - N/A   Clear
4:53 PM 45.0 °F 39.3 °F 21.9 °F 40% 30.12 in 10.0 mi SW 11.5 mph - N/A   Clear
5:53 PM 39.9 °F 35.1 °F 21.9 °F 49% 30.12 in 10.0 mi SSW 6.9 mph - N/A   Clear
6:53 PM 37.9 °F 34.4 °F 21.9 °F 53% 30.13 in 10.0 mi SW 4.6 mph - N/A   Clear
7:53 PM 35.1 °F - 23.0 °F 61% 30.15 in 10.0 mi Calm Calm - N/A   Clear
8:53 PM 34.0 °F - 23.0 °F 64% 30.15 in 10.0 mi Calm Calm - N/A   Clear
9:53 PM 32.0 °F - 23.0 °F 69% 30.17 in 10.0 mi Calm Calm - N/A   Clear
10:53 PM 30.0 °F - 23.0 °F 75% 30.17 in 10.0 mi Calm Calm - N/A   Clear
11:53 PM 28.9 °F - 23.0 °F 78% 30.18 in 10.0 mi Calm Calm - N/A   Clear